Wainwright, AK

5:31 PM AKDT on October 20, 2017 (GMT -0800)
Wainwright

Weather History for PAWI - November, 2012

Change the Weather History Date:

Thursday, November 1, 2012

  Actual Average (PABR) Record (PABR)
Temperature  
Mean Temperature 22 °F -  
Max Temperature 30 °F 10 °F 32 °F (1924)
Min Temperature 15 °F -1 °F -24 °F (1975)
Degree Days  
Heating Degree Days 42    
Moisture  
Dew Point 19 °F    
Average Humidity 83    
Maximum Humidity 93    
Minimum Humidity 68    
Precipitation  
Precipitation 0.00 in - - ()
Sea Level Pressure  
Sea Level Pressure 30.16 in    
Wind  
Wind Speed 19 mph (West)    
Max Wind Speed 25 mph    
Max Gust Speed 32 mph    
Visibility 4 miles    
Events Snow    
Averages and records for this station are not official NWS values.
T = Trace of Precipitation, MM = Missing Value Source: NWS Daily Summary

Daily Weather History Graph

Daily Weather History Graph

Search for Another Location

Airport or City:

Trip Planner

Search our weather history database for the weather conditions in past years. The results will help you decide how hot, cold, wet, or windy it might be!

Date:

Astronomy

Nov. 01, 2012 Rise Set
Actual Time 11:22 AM AKDT 5:23 PM AKDT
Civil Twilight 10:03 AM AKDT 6:42 PM AKDT
Nautical Twilight 8:46 AM AKDT 7:59 PM AKDT
Astronomical Twilight 7:33 AM AKDT 9:11 PM AKDT
Moon No Moon Rise No Moon Set
Length of Visible Light 8h 38m
Length of Day
6h 01m
Waning Gibbous, 92% of the Moon is Illuminated
Nov 1
Waning Gibbous
Nov 6
Last Quarter
Nov 13
New
Nov 20
First Quarter
Nov 28
Full

Hourly Weather History & Observations

Time (AKDT) Temp. Windchill Dew Point Humidity Pressure Visibility Wind Dir Wind Speed Gust Speed Precip Events Conditions
12:53 AM 15.1 °F -0.6 °F 10.9 °F 84% 30.48 in 10.0 mi SSW 16.1 mph - N/A   Overcast
1:53 AM 16.0 °F 0.6 °F 12.0 °F 84% 30.45 in 10.0 mi SSW 16.1 mph - N/A   Overcast
2:53 AM 15.1 °F -0.1 °F 12.0 °F 88% 30.43 in 10.0 mi SSW 15.0 mph - N/A   Overcast
3:53 AM 16.0 °F 0.6 °F 12.0 °F 84% 30.40 in 10.0 mi SSW 16.1 mph - N/A   Overcast
4:28 AM 15.8 °F -0.2 °F 12.2 °F 86% 30.37 in 10.0 mi SSW 17.3 mph - N/A   Overcast
4:53 AM 16.0 °F -0.9 °F 12.0 °F 84% 30.36 in 10.0 mi SSW 19.6 mph - N/A   Overcast
5:53 AM 17.1 °F 0.1 °F 12.0 °F 81% 30.33 in 10.0 mi SSW 20.7 mph - N/A   Overcast
6:53 AM 17.1 °F 0.1 °F 12.0 °F 81% 30.30 in 10.0 mi SSW 20.7 mph - N/A   Overcast
7:07 AM 17.6 °F 0.5 °F 12.2 °F 79% 30.28 in 7.0 mi SSW 21.9 mph - 0.00 in Snow Light Snow
7:36 AM 17.6 °F 1.3 °F 12.2 °F 79% 30.27 in 9.0 mi SSW 19.6 mph - 0.00 in   Overcast
7:53 AM 18.0 °F 0.9 °F 12.9 °F 81% 30.27 in 10.0 mi SSW 21.9 mph - 0.00 in   Overcast
8:53 AM 19.0 °F 2.4 °F 14.0 °F 81% 30.24 in 10.0 mi SSW 21.9 mph - N/A   Overcast
9:02 AM 19.4 °F 2.8 °F 15.8 °F 86% 30.23 in 7.0 mi SSW 21.9 mph - 0.00 in Snow Light Snow
9:53 AM 19.0 °F 2.0 °F 15.1 °F 85% 30.21 in 3.0 mi SSW 23.0 mph - 0.00 in Snow Light Snow
10:00 AM 19.4 °F 2.5 °F 14.0 °F 80% 30.20 in 4.0 mi SSW 23.0 mph - 0.00 in Snow Light Snow
10:18 AM 19.4 °F 2.1 °F 14.0 °F 80% 30.19 in 5.0 mi SSW 24.2 mph - 0.00 in Snow Light Snow
10:51 AM 19.4 °F 2.5 °F 17.6 °F 93% 30.18 in 2.5 mi SSW 23.0 mph - 0.00 in Snow Light Snow
10:53 AM 21.0 °F 4.3 °F 17.1 °F 85% 30.18 in 2.5 mi SSW 24.2 mph - 0.00 in Snow Light Snow
11:31 AM 21.2 °F 4.2 °F 17.6 °F 86% 30.16 in 1.5 mi SSW 25.3 mph - 0.00 in Snow Light Snow
11:53 AM 21.0 °F 4.3 °F 18.0 °F 88% 30.15 in 1.5 mi SSW 24.2 mph - 0.00 in Snow Light Snow
12:01 PM 21.2 °F 4.5 °F 17.6 °F 86% 30.14 in 0.8 mi SSW 24.2 mph - 0.00 in Snow Light Snow
12:13 PM 21.2 °F 4.9 °F 19.4 °F 93% 30.14 in 1.0 mi SSW 23.0 mph - 0.00 in Snow Light Snow
12:27 PM 21.2 °F 5.6 °F 19.4 °F 93% 30.14 in 0.8 mi SSW 20.7 mph - 0.00 in Snow Light Snow
12:53 PM 26.1 °F 11.0 °F 23.0 °F 88% 30.13 in 0.8 mi SW 24.2 mph 32.2 mph 0.00 in Snow Light Snow
1:53 PM 28.9 °F 15.4 °F 26.1 °F 89% 30.11 in 0.8 mi WSW 21.9 mph 32.2 mph 0.00 in Snow Light Snow
2:09 PM 30.2 °F 17.4 °F 26.6 °F 86% 30.10 in 0.8 mi West 20.7 mph 32.2 mph 0.00 in Snow Light Snow
2:32 PM 30.2 °F 17.4 °F 26.6 °F 86% 30.09 in 1.2 mi West 20.7 mph 31.1 mph 0.00 in Snow Light Snow
2:53 PM 30.0 °F 17.5 °F 25.0 °F 82% 30.09 in 1.0 mi West 19.6 mph 28.8 mph 0.00 in Snow Light Snow
3:00 PM 30.2 °F 17.8 °F 26.6 °F 86% 30.08 in 0.8 mi West 19.6 mph 27.6 mph 0.00 in Snow Light Snow
3:15 PM 30.2 °F 18.1 °F 26.6 °F 86% 30.08 in 1.0 mi West 18.4 mph 27.6 mph 0.00 in Snow Light Snow
3:17 PM 30.2 °F 18.1 °F 26.6 °F 86% 30.08 in 0.8 mi West 18.4 mph 27.6 mph 0.00 in Snow Light Snow
3:26 PM 30.2 °F 17.8 °F 26.6 °F 86% 30.07 in 0.8 mi West 19.6 mph 29.9 mph 0.00 in Snow Light Snow
3:34 PM 28.4 °F 14.4 °F 26.6 °F 93% 30.07 in 1.0 mi West 23.0 mph 28.8 mph 0.00 in Snow Light Snow
3:41 PM 28.4 °F 13.8 °F 26.6 °F 93% 30.06 in 0.8 mi WNW 25.3 mph 28.8 mph 0.01 in Snow Light Snow
3:57 PM 28.4 °F 15.1 °F 24.8 °F 86% 30.06 in 1.0 mi West 20.7 mph 28.8 mph 0.00 in Snow Light Snow
4:18 PM 28.4 °F 16.2 °F 24.8 °F 86% 30.07 in 1.8 mi WNW 17.3 mph 26.5 mph 0.00 in Snow Light Snow
4:24 PM 28.4 °F 16.2 °F 24.8 °F 86% 30.07 in 3.0 mi WNW 17.3 mph 24.2 mph 0.00 in Snow Light Snow
4:53 PM 28.9 °F 16.1 °F 24.1 °F 82% 30.06 in 8.0 mi WNW 19.6 mph - 0.00 in   Overcast
5:00 PM 28.4 °F 16.2 °F 24.8 °F 86% 30.06 in 9.0 mi WNW 17.3 mph 26.5 mph N/A   Overcast
5:25 PM 28.4 °F 15.8 °F 23.0 °F 80% 30.07 in 2.5 mi WNW 18.4 mph - 0.00 in Snow Light Snow
5:35 PM 28.4 °F 16.2 °F 23.0 °F 80% 30.06 in 2.5 mi WNW 17.3 mph 25.3 mph 0.00 in Snow Light Snow
5:42 PM 26.6 °F 13.4 °F 21.2 °F 80% 30.06 in 1.8 mi WNW 18.4 mph - 0.00 in Snow Light Snow
5:53 PM 27.0 °F 13.9 °F 21.9 °F 81% 30.07 in 1.5 mi WNW 18.4 mph - 0.00 in Snow Light Snow
6:04 PM 26.6 °F 14.3 °F 21.2 °F 80% 30.07 in 1.8 mi WNW 16.1 mph - 0.00 in Snow Light Snow
6:06 PM 26.6 °F 14.3 °F 21.2 °F 80% 30.07 in 2.0 mi NW 16.1 mph - 0.00 in Snow Light Snow
6:15 PM 26.6 °F 14.7 °F 21.2 °F 80% 30.07 in 3.0 mi WNW 15.0 mph - 0.00 in Snow Light Snow
6:27 PM 26.6 °F 15.2 °F 23.0 °F 86% 30.07 in 2.5 mi WNW 13.8 mph - 0.00 in Snow Light Snow
6:51 PM 26.6 °F 15.2 °F 23.0 °F 86% 30.07 in 2.0 mi NW 13.8 mph - 0.00 in Snow Light Snow
6:53 PM 27.0 °F 15.6 °F 21.9 °F 81% 30.08 in 2.0 mi NW 13.8 mph - 0.00 in Snow Light Snow
7:09 PM 26.6 °F 12.7 °F 21.2 °F 80% 30.07 in 3.0 mi NNW 20.7 mph - 0.00 in Snow Light Snow
7:20 PM 26.6 °F 14.7 °F 21.2 °F 80% 30.08 in 4.0 mi NNW 15.0 mph - 0.00 in Snow Light Snow
7:49 PM 26.6 °F 12.0 °F 21.2 °F 80% 30.08 in 2.5 mi North 23.0 mph 28.8 mph 0.00 in Snow Light Snow
7:53 PM 25.0 °F 10.2 °F 21.0 °F 85% 30.09 in 2.5 mi North 21.9 mph 28.8 mph 0.00 in Snow Light Snow
7:57 PM 24.8 °F 10.0 °F 21.2 °F 86% 30.08 in 3.0 mi North 21.9 mph 28.8 mph 0.00 in Snow Light Snow
8:53 PM 23.0 °F 8.3 °F 18.0 °F 81% 30.13 in 5.0 mi North 19.6 mph - 0.00 in Snow Light Snow
9:53 PM 21.0 °F 5.4 °F 14.0 °F 74% 30.15 in 6.0 mi North 20.7 mph - 0.00 in   Haze
10:53 PM 19.9 °F 5.7 °F 12.0 °F 71% 30.17 in 7.0 mi North 16.1 mph - 0.00 in Snow Light Snow
11:27 PM 19.4 °F 3.2 °F 12.2 °F 74% 30.18 in 2.0 mi North 20.7 mph - 0.00 in Snow Light Snow
11:38 PM 19.4 °F 4.5 °F 10.4 °F 68% 30.19 in 4.0 mi North 17.3 mph 27.6 mph 0.00 in Snow Light Snow
11:53 PM 19.0 °F 4.0 °F 12.0 °F 74% 30.20 in 6.0 mi North 17.3 mph 26.5 mph 0.00 in Snow Light Snow